Find Geely Xingzuo 04 zu 01 xing

NORAD ID: 65119 Int'l Des: 2025-170 Owner: GEESP Country: CN Constellation: geesatcom operational
LEOCIRCULAR

リアルタイム位置

3D地球を読み込み中...

Geely Xingzuo 04 zu 01 xingについて

説明を読み込み中...

次回通過

Passes for default location (London). Set your location on the main map for personalized predictions.

高度履歴

Loading altitude history...

軌道要素

1 65119U 25170A 26136.11012419 .00000943 00000-0 13960-3 0 9992
2 65119 49.9894 323.2095 0010172 286.7373 73.2448 14.83859104 41677
Epoch: May 16, 2026 • Age: 11 hours

現在のステータス

高度 615.5 km
速度 7.55 km/s
衛星直下点 1.59°N, 121.44°W
打ち上げ日 Aug 8, 2025
運用期間 0.7 years
タイプ other

技術仕様

分類 Payload
質量 130.00 kg
乾燥質量 130.00 kg
総質量 130.00 kg
長さ 1.00 m
直径 0.50 m
スパン 2.00 m
形状 Box + 2 pan
製造者 GWCG
バスタイプ GPS100
フェーズステータス In Orbit
所有者/国 GEESP/CN

Most Searched